Location: Centerville
(32.8776°N, 96.6203°W)
Time: 09:21:21
(UTC+00:00)

Cosmos 2237 - Pass Details

Date: 31 October 2021
Orbit: 845 x 856 km, 70.8° (Epoch: 08 December)

Event Time Altitude Azimuth Distance (km) Brightness Sun altitude
Rises 00:39:06 0° 240° (WSW) 3,408 8.7 -13.6°
Reaches altitude 10° 00:42:18 10° 258° (WSW) 2,478 8.1 -14.3°
Maximum altitude 00:46:13 19° 302° (WNW) 1,935 6.7 -15.1°
Drops below altitude 10° 00:50:09 10° 346° (NNW) 2,490 6.7 -15.9°
Sets 00:53:24 0° 4° (N) 3,430 7.3 -16.6°
